H1 CPF 2 NER 2022 9 6 9 249 01 glonass129 H2 1106402 9129 37868 2022 9 6 0 0 0 2022 9 9 23 45 0 900 1 1 0 0 0 1 H9 10 0 59828 0.00000 0 7088392.941 8321379.126 -23014525.897 10 0 59828 900.00000 0 5180043.538 10407757.374 -22676469.834 10 0 59828 1800.00000 0 3472421.921 12573589.699 -21896735.361 10 0 59828 2700.00000 0 1997935.036 14757571.098 -20690735.802 10 0 59828 3600.00000 0 777115.429 16894696.665 -19082175.970 10 0 59828 4500.00000 0 -182001.708 18918851.305 -17102571.267 10 0 59828 5400.00000 0 -883965.163 20765458.301 -14790615.906 10 0 59828 6300.00000 0 -1345457.403 22374075.960 -12191413.728 10 0 59828 7200.00000 0 -1594329.264 23690834.007 -9355587.730 10 0 59828 8100.00000 0 -1668163.136 24670608.697 -6338286.500 10 0 59828 9000.00000 0 -1612427.632 25278846.830 -3198107.515 10 0 59828 9900.00000 0 -1478303.432 25492963.871 4041.278 10 0 59828 10800.00000 0 -1320273.330 25303259.400 3206119.378 10 0 59828 11700.00000 0 -1193578.842 24713313.357 6346148.525 10 0 59828 12600.00000 0 -1151650.687 23739848.102 9363401.588 10 0 59828 13500.00000 0 -1243621.076 22412063.432 12199563.437 10 0 59828 14400.00000 0 -1512021.863 20770473.158 14799842.477 10 0 59828 15300.00000 0 -1990764.524 18865292.182 17114012.642 10 0 59828 16200.00000 0 -2703486.034 16754441.045 19097367.354 10 0 59828 17100.00000 0 -3662329.579 14501250.150 20711568.601 10 0 59828 18000.00000 0 -4867211.083 12171957.886 21925376.228 10 0 59828 18900.00000 0 -6305602.802 9833104.815 22715244.711 10 0 59828 19800.00000 0 -7952844.221 7548930.191 23065776.824 10 0 59828 20700.00000 0 -9772969.050 5378876.941 22970025.896 10 0 59828 21600.00000 0 -11720016.202 3375306.841 22429640.757 10 0 59828 22500.00000 0 -13739772.837 1581519.303 21454849.888 10 0 59828 23400.00000 0 -15771879.588 30155.173 20064283.873 10 0 59828 24300.00000 0 -17752212.967 -1257948.492 18284637.883 10 0 59828 25200.00000 0 -19615447.867 -2274404.836 16150178.684 10 0 59828 26100.00000 0 -21297694.868 -3023397.208 13702103.566 10 0 59828 27000.00000 0 -22739102.999 -3521266.843 10987761.491 10 0 59828 27900.00000 0 -23886319.137 -3795584.517 8059749.647 10 0 59828 28800.00000 0 -24694700.087 -3883744.249 4974901.621 10 0 59828 29700.00000 0 -25130183.041 -3831137.657 1793185.926 10 0 59828 30600.00000 0 -25170733.732 -3688985.935 -1423463.866 10 0 59828 31500.00000 0 -24807309.032 -3511921.516 -4612364.087 10 0 59828 32400.00000 0 -24044291.164 -3355422.916 -7711316.307 10 0 59828 33300.00000 0 -22899373.177 -3273213.141 -10659837.424 10 0 59828 34200.00000 0 -21402898.968 -3314734.044 -13400358.555 10 0 59828 35100.00000 0 -19596684.752 -3522806.163 -15879367.394 10 0 59828 36000.00000 0 -17532371.313 -3931575.689 -18048469.867 10 0 59828 36900.00000 0 -15269376.832 -4564837.826 -19865348.639 10 0 59828 37800.00000 0 -12872537.159 -5434809.479 -21294598.562 10 0 59828 38700.00000 0 -10409533.784 -6541404.661 -22308422.012 10 0 59828 39600.00000 0 -7948218.633 -7872044.100 -22887170.215 10 0 59828 40500.00000 0 -5553948.774 -9402007.474 -23019720.272 10 0 59828 41400.00000 0 -3287043.197 -11095313.312 -22703681.135 10 0 59828 42300.00000 0 -1200468.161 -12906088.969 -21945425.491 10 0 59828 43200.00000 0 662152.783 -14780372.339 -20759948.109 10 0 59828 44100.00000 0 2268122.235 -16658268.777 -19170554.740 10 0 59828 45000.00000 0 3596781.599 -18476371.809 -17208388.998 10 0 59828 45900.00000 0 4640108.977 -20170345.511 -14911807.759 10 0 59828 46800.00000 0 5402780.247 -21677559.903 -12325618.440 10 0 59828 47700.00000 0 5901693.847 -22939668.896 -9500194.147 10 0 59828 48600.00000 0 6164982.389 -23905023.176 -6490484.780 10 0 59828 49500.00000 0 6230555.477 -24530817.723 -3354943.964 10 0 59828 50400.00000 0 6144237.477 -24784885.138 -154393.196 10 0 59828 51300.00000 0 5957580.474 -24647061.012 3049154.666 10 0 59828 52200.00000 0 5725445.776 -24110065.706 6193689.896 10 0 59828 53100.00000 0 5503456.401 -23179867.017 9218395.641 10 0 59828 54000.00000 0 5345427.766 -21875509.846 12064810.716 10 0 59828 54900.00000 0 5300884.289 -20228420.807 14677944.095 10 0 59828 55800.00000 0 5412765.468 -18281217.193 17007320.847 10 0 59828 56700.00000 0 5715416.954 -16086069.759 19007940.875 10 0 59828 57600.00000 0 6232950.125 -13702686.670 20641133.580 10 0 59828 58500.00000 0 6978038.428 -11196001.160 21875293.419 10 0 59828 59400.00000 0 7951200.923 -8633657.156 22686483.493 10 0 59828 60300.00000 0 9140603.621 -6083395.122 23058896.516 10 0 59828 61200.00000 0 10522388.165 -3610444.426 22985164.698 10 0 59828 62100.00000 0 12061516.017 -1275028.277 22466512.553 10 0 59828 63000.00000 0 13713095.297 869917.117 21512749.000 10 0 59828 63900.00000 0 15424137.463 2780715.763 20142097.743 10 0 59828 64800.00000 0 17135673.210 4424536.327 18380867.518 10 0 59828 65700.00000 0 18785141.626 5780522.144 16262966.580 10 0 59828 66600.00000 0 20308954.644 6840419.291 13829268.650 10 0 59828 67500.00000 0 21645130.703 7608675.839 11126840.526 10 0 59828 68400.00000 0 22735887.702 8102007.179 8208044.375 10 0 59828 69300.00000 0 23530085.939 8348444.646 5129530.775 10 0 59828 70200.00000 0 23985417.161 8385906.716 1951141.173 10 0 59828 71100.00000 0 24070245.708 8260352.602 -1265259.172 10 0 59828 72000.00000 0 23765021.839 8023596.339 -4456994.494 10 0 59828 72900.00000 0 23063205.193 7730874.569 -7561813.441 10 0 59828 73800.00000 0 21971657.020 7438272.346 -10519120.014 10 0 59828 74700.00000 0 20510482.594 7200117.856 -13271174.582 10 0 59828 75600.00000 0 18712328.962 7066458.672 -15764239.600 10 0 59828 76500.00000 0 16621166.717 7080728.857 -17949645.770 10 0 59828 77400.00000 0 14290606.904 7277707.972 -19784756.129 10 0 59828 78300.00000 0 11781824.190 7681860.391 -21233807.972 10 0 59828 79200.00000 0 9161174.263 8306126.718 -22268615.433 10 0 59828 80100.00000 0 6497606.434 9151219.355 -22869118.637 10 0 59828 81000.00000 0 3859980.797 10205452.370 -23023768.957 10 0 59828 81900.00000 0 1314402.861 11445112.725 -22729743.477 10 0 59828 82800.00000 0 -1078312.546 12835356.625 -21992985.392 10 0 59828 83700.00000 0 -3264942.478 14331592.328 -20828070.816 10 0 59828 84600.00000 0 -5201827.092 15881290.205 -19257905.845 10 0 59828 85500.00000 0 -6856430.074 17426142.806 -17313261.208 10 0 59829 0.00000 0 -8208425.282 18904483.096 -15032155.083 10 0 59829 900.00000 0 -9250267.596 20253859.346 -12459096.028 10 0 59829 1800.00000 0 -9987225.310 21413656.184 -9644205.033 10 0 59829 2700.00000 0 -10436878.354 22327654.423 -6642230.563 10 0 59829 3600.00000 0 -10628104.583 22946420.643 -3511479.406 10 0 59829 4500.00000 0 -10599600.180 23229427.789 -312683.428 10 0 59829 5400.00000 0 -10397998.563 23146818.794 2892175.426 10 0 59829 6300.00000 0 -10075668.559 22680740.468 6041059.273 10 0 59829 7200.00000 0 -9688285.477 21826193.036 9073064.802 10 0 59829 8100.00000 0 -9292277.640 20591360.881 11929587.932 10 0 59829 9000.00000 0 -8942255.516 18997411.438 14555441.212 10 0 59829 9900.00000 0 -8688530.858 17077771.089 16899903.618 10 0 59829 10800.00000 0 -8574829.070 14876908.049 18917684.051 10 0 59829 11700.00000 0 -8636289.807 12448672.225 20569781.546 10 0 59829 12600.00000 0 -8897838.768 9854259.798 21824227.041 10 0 59829 13500.00000 0 -9372998.393 7159885.290 22656693.778 10 0 59829 14400.00000 0 -10063187.263 4434255.495 23050965.512 10 0 59829 15300.00000 0 -10957538.142 1745947.777 22999253.995 10 0 59829 16200.00000 0 -12033243.572 -839200.963 22502359.606 10 0 59829 17100.00000 0 -13256416.419 -3260588.562 21569671.374 10 0 59829 18000.00000 0 -14583431.680 -5465123.249 20219005.271 10 0 59829 18900.00000 0 -15962695.926 -7409187.446 18476282.218 10 0 59829 19800.00000 0 -17336772.798 -9060208.665 16375050.049 10 0 59829 20700.00000 0 -18644777.628 -10397771.980 13955856.542 10 0 59829 21600.00000 0 -19824942.370 -11414227.168 11265483.525 10 0 59829 22500.00000 0 -20817243.988 -12114764.284 8356054.992 10 0 59829 23400.00000 0 -21565985.772 -12516953.374 5284035.110 10 0 59829 24300.00000 0 -22022222.086 -12649766.776 2109134.666 10 0 59829 25200.00000 0 -22145922.729 -12552124.473 -1106853.076 10 0 59829 26100.00000 0 -21907783.401 -12271023.607 -4301263.954 10 0 59829 27000.00000 0 -21290603.341 -11859331.564 -7411797.350 10 0 59829 27900.00000 0 -20290169.322 -11373336.949 -10377747.905 10 0 59829 28800.00000 0 -18915606.267 -10870163.595 -13141208.599 10 0 59829 29700.00000 0 -17189177.720 -10405159.120 -15648219.721 10 0 59829 30600.00000 0 -15145543.094 -10029370.765 -17849839.471 10 0 59829 31500.00000 0 -12830502.285 -9787217.590 -19703113.486 10 0 59829 32400.00000 0 -10299280.246 -9714459.524 -21171923.172 10 0 59829 33300.00000 0 -7614423.950 -9836550.723 -22227695.435 10 0 59829 34200.00000 0 -4843400.710 -10167447.892 -22849959.640 10 0 59829 35100.00000 0 -2055999.259 -10708924.302 -23026741.100 10 0 59829 36000.00000 0 678356.947 -11450418.335 -22754784.069 10 0 59829 36900.00000 0 3293271.386 -12369422.251 -22039600.762 10 0 59829 37800.00000 0 5727900.003 -13432393.731 -20895346.682 10 0 59829 38700.00000 0 7929235.785 -14596150.506 -19344525.969 10 0 59829 39600.00000 0 9854058.171 -15809687.962 -17417533.876 10 0 59829 40500.00000 0 11470467.805 -17016341.874 -15152046.636 10 0 59829 41400.00000 0 12758944.913 -18156204.223 -12592271.781 10 0 59829 42300.00000 0 13712889.817 -19168689.621 -9788074.684 10 0 59829 43200.00000 0 14338626.024 -19995144.046 -6793999.175 10 0 59829 44100.00000 0 14654868.875 -20581386.186 -3668201.963 10 0 59829 45000.00000 0 14691684.887 -20880074.987 -471322.090 10 0 59829 45900.00000 0 14488988.040 -20852804.663 2734692.506 10 0 59829 46800.00000 0 14094638.203 -20471840.181 5887778.687 10 0 59829 47700.00000 0 13562222.953 -19721421.458 8926949.333 10 0 59829 48600.00000 0 12948616.743 -18598582.621 11793459.791 10 0 59829 49500.00000 0 12311420.053 -17113452.798 14431928.144 10 0 59829 50400.00000 0 11706385.556 -15289026.273 16791388.850 10 0 59829 51300.00000 0 11184938.442 -13160411.524 18826260.983 10 0 59829 52200.00000 0 10791893.773 -10773589.716 20497213.992 10 0 59829 53100.00000 0 10563465.375 -8183733.164 21771915.699 10 0 59829 54000.00000 0 10525648.724 -5453151.794 22625649.528 10 0 59829 54900.00000 0 10693044.973 -2648950.633 23041790.006 10 0 59829 55800.00000 0 11068175.301 159506.921 23012127.882 10 0 59829 56700.00000 0 11641314.901 2903227.479 22537038.612 10 0 59829 57600.00000 0 12390854.792 5516201.134 21625490.372 10 0 59829 58500.00000 0 13284178.079 7937893.641 20294890.273 10 0 59829 59400.00000 0 14279016.108 10115515.417 18570770.166 10 0 59829 60300.00000 0 15325229.993 12005974.046 16486316.098 10 0 59829 61200.00000 0 16366944.890 13577429.182 14081748.404 10 0 59829 62100.00000 0 17344949.195 14810384.764 11403562.311 10 0 59829 63000.00000 0 18199258.899 15698272.079 8503641.836 10 0 59829 63900.00000 0 18871739.555 16247498.138 5438262.754 10 0 59829 64800.00000 0 19308674.833 16476956.231 2267003.034 10 0 59829 65700.00000 0 19463172.034 16417018.264 -948418.375 10 0 59829 66600.00000 0 19297300.983 16108050.726 -4145351.351 10 0 59829 67500.00000 0 18783873.487 15598516.863 -7261448.490 10 0 59829 68400.00000 0 17907785.424 14942745.804 -10235897.544 10 0 59829 69300.00000 0 16666862.121 14198464.070 -13010626.465 10 0 59829 70200.00000 0 15072168.914 13424195.568 -15531455.615 10 0 59829 71100.00000 0 13147771.841 12676642.015 -17749172.736 10 0 59829 72000.00000 0 10929957.307 12008156.702 -19620507.950 10 0 59829 72900.00000 0 8465942.849 11464420.354 -21108988.469 10 0 59829 73800.00000 0 5812133.080 11082418.960 -22185655.511 10 0 59829 74700.00000 0 3031994.428 10888810.058 -22829629.020 10 0 59829 75600.00000 0 193638.333 10898746.969 -23028509.393 10 0 59829 76500.00000 0 -2632785.295 11115210.427 -22778608.916 10 0 59829 77400.00000 0 -5377774.741 11528875.057 -22085009.351 10 0 59829 78300.00000 0 -7975130.898 12118515.108 -20961445.730 10 0 59829 79200.00000 0 -10364468.896 12851930.806 -19430019.919 10 0 59829 80100.00000 0 -12493482.857 13687354.578 -17520750.927 10 0 59829 81000.00000 0 -14319870.717 14575276.203 -15270972.047 10 0 59829 81900.00000 0 -15812840.742 15460608.492 -12724587.769 10 0 59829 82800.00000 0 -16954139.153 16285101.027 -9931206.088 10 0 59829 83700.00000 0 -17738558.724 16989899.468 -6945163.968 10 0 59829 84600.00000 0 -18173909.999 17518142.230 -3824465.580 10 0 59829 85500.00000 0 -18280459.164 17817485.243 -629654.496 10 0 59830 0.00000 0 -18089858.886 17842448.972 2577357.853 10 0 59830 900.00000 0 -17643619.029 17556489.656 5734486.564 10 0 59830 1800.00000 0 -16991183.425 16933708.680 8780663.401 10 0 59830 2700.00000 0 -16187694.157 15960129.237 11657006.185 10 0 59830 3600.00000 0 -15291537.716 14634487.470 14307941.565 10 0 59830 4500.00000 0 -14361775.708 12968505.448 16682262.442 10 0 59830 5400.00000 0 -13455567.034 10986634.596 18734100.894 10 0 59830 6300.00000 0 -12625688.442 8725279.683 20423799.394 10 0 59830 7200.00000 0 -11918255.931 6231534.603 21718664.996 10 0 59830 8100.00000 0 -11370741.089 3561480.802 22593593.314 10 0 59830 9000.00000 0 -11010364.308 778116.793 23031551.257 10 0 59830 9900.00000 0 -10852931.476 -2050997.769 23023909.750 10 0 59830 10800.00000 0 -10902162.723 -4856288.505 22570620.046 10 0 59830 11700.00000 0 -11149541.906 -7568800.258 21680229.681 10 0 59830 12600.00000 0 -11574694.256 -10122811.614 20369736.616 10 0 59830 13500.00000 0 -12146278.036 -12458323.377 18664282.827 10 0 59830 14400.00000 0 -12823354.741 -14523318.886 16596691.261 10 0 59830 15300.00000 0 -13557182.328 -16275702.629 14206853.023 10 0 59830 16200.00000 0 -14293357.891 -17684836.267 11540974.515 10 0 59830 17100.00000 0 -14974220.953 -18732607.241 8650697.185 10 0 59830 18000.00000 0 -15541416.762 -19413984.093 5592105.498 10 0 59830 18900.00000 0 -15938511.372 -19737033.934 2424641.449 10 0 59830 19800.00000 0 -16113547.109 -19722400.061 -790053.681 10 0 59830 20700.00000 0 -16021428.742 -19402260.716 -3989347.298 10 0 59830 21600.00000 0 -15626037.174 -18818812.389 -7110848.781 10 0 59830 22500.00000 0 -14901978.574 -18022341.725 -10093642.578 10 0 59830 23400.00000 0 -13835892.198 -17068968.201 -12879495.162 10 0 59830 24300.00000 0 -12427258.996 -16018154.188 -15414010.361 10 0 59830 25200.00000 0 -10688674.527 -14930089.368 -17647708.613 10 0 59830 26100.00000 0 -8645572.956 -13863061.888 -19537007.308 10 0 59830 27000.00000 0 -6335412.608 -12870929.237 -21045081.782 10 0 59830 27900.00000 0 -3806356.736 -12000797.233 -22142589.311 10 0 59830 28800.00000 0 -1115505.003 -11291006.273 -22808241.567 10 0 59830 29700.00000 0 1673249.853 -10769510.361 -23029214.539 10 0 59830 30600.00000 0 4491649.847 -10452717.153 -22801388.477 10 0 59830 31500.00000 0 7269681.864 -10344837.203 -22129414.085 10 0 59830 32400.00000 0 9938260.649 -10437768.479 -21026604.842 10 0 59830 33300.00000 0 12431872.613 -10711519.308 -19514658.869 10 0 59830 34200.00000 0 14691070.404 -11135149.891 -17623217.091 10 0 59830 35100.00000 0 16664715.169 -11668190.665 -15389267.687 10 0 59830 36000.00000 0 18311874.341 -12262475.737 -12856409.601 10 0 59830 36900.00000 0 19603297.681 -12864312.410 -10073990.631 10 0 59830 37800.00000 0 20522412.265 -13416894.000 -7096137.765 10 0 59830 38700.00000 0 21065797.511 -13862853.356 -3980699.297 10 0 59830 39600.00000 0 21243123.017 -14146849.060 -788119.831 10 0 59830 40500.00000 0 21076554.495 -14218075.392 2419729.830 10 0 59830 41400.00000 0 20599655.027 -14032590.790 5580745.341 10 0 59830 42300.00000 0 19855829.541 -13555367.538 8633781.228 10 0 59830 43200.00000 0 18896379.059 -12761977.346 11519820.785 10 0 59830 44100.00000 0 17778246.891 -11639842.785 14183101.865 10 0 59830 45000.00000 0 16561551.225 -10189002.679 16572178.028 10 0 59830 45900.00000 0 15307006.827 -8422359.536 18640896.131 10 0 59830 46800.00000 0 14073342.667 -6365398.286 20349273.003 10 0 59830 47700.00000 0 12914822.102 -4055387.116 21664255.833 10 0 59830 48600.00000 0 11878967.753 -1540092.111 22560352.912 10 0 59830 49500.00000 0 11004584.734 1123943.006 23020123.650 10 0 59830 50400.00000 0 10320163.702 3873483.028 23034518.900 10 0 59830 51300.00000 0 9842729.827 6640969.523 22603065.144 10 0 59830 52200.00000 0 9577185.667 9357075.780 21733888.411 10 0 59830 53100.00000 0 9516175.982 11953344.895 20443576.385 10 0 59830 54000.00000 0 9640481.201 14364803.728 18756879.805 10 0 59830 54900.00000 0 9919924.520 16532445.684 16706256.951 10 0 59830 55800.00000 0 10314756.249 18405479.797 14331267.946 10 0 59830 56700.00000 0 10777458.908 19943252.591 11677828.430 10 0 59830 57600.00000 0 11254898.444 21116761.897 8797335.163 10 0 59830 58500.00000 0 11690731.785 21909698.204 5745679.029 10 0 59830 59400.00000 0 12027969.308 22318968.479 2582163.603 10 0 59830 60300.00000 0 12211583.334 22354678.948 -631650.041 10 0 59830 61200.00000 0 12191051.022 22039576.199 -3833149.443 10 0 59830 62100.00000 0 11922722.012 21407969.162 -6959903.363 10 0 59830 63000.00000 0 11371908.087 20504176.998 -9950895.459 10 0 59830 63900.00000 0 10514603.674 19380568.584 -12747733.090 10 0 59830 64800.00000 0 9338761.613 18095277.136 -15295805.733 10 0 59830 65700.00000 0 7845067.682 16709687.810 -17545368.503 10 0 59830 66600.00000 0 6047179.148 15285805.970 -19452527.833 10 0 59830 67500.00000 0 3971415.659 13883618.931 -20980108.769 10 0 59830 68400.00000 0 1655914.561 12558564.085 -22098386.055 10 0 59830 69300.00000 0 -850714.211 11359211.381 -22785664.323 10 0 59830 70200.00000 0 -3491177.076 10325258.526 -23028696.180 10 0 59830 71100.00000 0 -6201654.244 9485923.333 -22822930.612 10 0 59830 72000.00000 0 -8914234.679 8858800.305 -22172587.724 10 0 59830 72900.00000 0 -11559526.254 8449228.235 -21090559.549 10 0 59830 73800.00000 0 -14069331.794 8250193.593 -19598140.154 10 0 59830 74700.00000 0 -16379279.173 8242771.592 -17724591.674 10 0 59830 75600.00000 0 -18431296.235 8397083.892 -15506556.078 10 0 59830 76500.00000 0 -20175828.199 8673730.228 -12987325.331 10 0 59830 77400.00000 0 -21573706.375 9025631.425 -10215985.324 10 0 59830 78300.00000 0 -22597592.076 9400204.235 -7246451.127 10 0 59830 79200.00000 0 -23232937.636 9741774.885 -4136413.020 10 0 59830 80100.00000 0 -23478426.725 9994128.666 -946214.335 10 0 59830 81000.00000 0 -23345878.030 10103087.689 2262316.937 10 0 59830 81900.00000 0 -22859618.629 10019008.256 5427060.214 10 0 59830 82800.00000 0 -22055355.214 9699093.107 8486795.284 10 0 59830 83700.00000 0 -20978591.931 9109421.946 11382373.826 10 0 59830 84600.00000 0 -19682661.918 8226615.615 14057847.887 10 0 59830 85500.00000 0 -18226455.158 7039064.721 16461534.693 10 0 59831 0.00000 0 -16671937.397 5547671.663 18546998.624 10 0 59831 900.00000 0 -15081562.020 3766073.990 20273934.000 10 0 59831 1800.00000 0 -13515683.700 1720341.170 21608930.424 10 0 59831 2700.00000 0 -12030077.374 -551846.620 22526111.026 10 0 59831 3600.00000 0 -10673666.437 -3002503.488 23007629.469 10 0 59831 4500.00000 0 -9486552.639 -5575075.434 23044017.868 10 0 59831 5400.00000 0 -8498428.841 -8206541.031 22634378.802 10 0 59831 6300.00000 0 -7727440.202 -10829790.850 21786417.205 10 0 59831 7200.00000 0 -7179541.315 -13376189.493 20516310.425 10 0 59831 8100.00000 0 -6848376.645 -15778216.275 18848417.442 10 0 59831 9000.00000 0 -6715690.215 -17972076.651 16814830.900 10 0 59831 9900.00000 0 -6752248.726 -19900176.818 14454778.527 10 0 59831 10800.00000 0 -6919240.743 -21513358.772 11813883.402 10 0 59831 11700.00000 0 -7170094.407 -22772802.177 8943295.448 10 0 59831 12600.00000 0 -7452638.056 -23651512.409 5898709.505 10 0 59831 13500.00000 0 -7711512.983 -24135331.011 2739288.031 10 0 59831 14400.00000 0 -7890736.094 -24223424.383 -473491.028 10 0 59831 15300.00000 0 -7936303.062 -23928228.439 -3677038.429 10 0 59831 16200.00000 0 -7798720.054 -23274850.160 -6808885.535 10 0 59831 17100.00000 0 -7435354.537 -22299950.259 -9807918.539 10 0 59831 18000.00000 0 -6812502.983 -21050153.737 -12615589.056 10 0 59831 18900.00000 0 -5907085.149 -19580055.644 -15177075.541 10 0 59831 19800.00000 0 -4707890.555 -17949907.023 -17442370.987 10 0 59831 20700.00000 0 -3216322.203 -16223079.979 -19367273.828 10 0 59831 21600.00000 0 -1446604.228 -14463420.256 -20914261.428 10 0 59831 22500.00000 0 574556.562 -12732600.389 -22053228.168 10 0 59831 23400.00000 0 2808841.637 -11087586.214 -22762073.302 10 0 59831 24300.00000 0 5207687.811 -9578324.131 -23027127.202 10 0 59831 25200.00000 0 7714092.792 -8245746.616 -22843408.223 10 0 59831 26100.00000 0 10264782.984 -7120179.363 -22214706.029 10 0 59831 27000.00000 0 12792652.220 -6220215.820 -21153490.932 10 0 59831 27900.00000 0 15229368.919 -5552104.588 -19680652.270 10 0 59831 28800.00000 0 17508042.358 -5109673.194 -17825072.324 10 0 59831 29700.00000 0 19565836.741 -4874788.764 -15623045.402 10 0 59831 30600.00000 0 21346424.410 -4818333.511 -13117554.626 10 0 59831 31500.00000 0 22802176.599 -4901651.322 -10357421.693 10 0 59831 32400.00000 0 23896001.663 -5078402.114 -7396347.060 10 0 59831 33300.00000 0 24602755.743 -5296743.860 -4291859.930 10 0 59831 34200.00000 0 24910168.899 -5501748.862 -1104199.003 10 0 59831 35100.00000 0 24819250.212 -5637951.523 2104854.089 10 0 59831 36000.00000 0 24344157.012 -5651919.877 5273166.134 10 0 59831 36900.00000 0 23511535.628 -5494742.679 8339445.717 10 0 59831 37800.00000 0 22359362.751 -5124327.838 11244416.261 10 0 59831 38700.00000 0 20935336.870 -4507416.174 13931947.084 10 0 59831 39600.00000 0 19294887.418 -3621226.600 16350121.821 10 0 59831 40500.00000 0 17498884.564 -2454664.221 18452225.085 10 0 59831 41400.00000 0 15611144.382 -1009040.802 20197629.914 10 0 59831 42300.00000 0 13695832.178 701722.823 21552570.310 10 0 59831 43200.00000 0 11814870.505 2651421.916 22490785.426 10 0 59831 44100.00000 0 10025458.006 4802408.619 22994023.972 10 0 59831 45000.00000 0 8377800.680 7106915.461 23052399.701 10 0 59831 45900.00000 0 6913148.482 9508809.188 22664591.277 10 0 59831 46800.00000 0 5662217.932 11945704.805 21837882.103 10 0 59831 47700.00000 0 4644065.926 14351354.791 20588038.372 10 0 59831 48600.00000 0 3865461.678 16658216.735 18939026.118 10 0 59831 49500.00000 0 3320783.545 18800094.758 16922570.820 10 0 59831 50400.00000 0 2992445.973 20714746.104 14577565.991 10 0 59831 51300.00000 0 2851839.815 22346344.940 11949340.062 10 0 59831 52200.00000 0 2860747.686 23647700.363 9088793.796 10 0 59831 53100.00000 0 2973175.783 24582134.914 6051423.470 10 0 59831 54000.00000 0 3137525.462 25124943.438 2896247.740 10 0 59831 54900.00000 0 3299012.840 25264369.204 -315341.378 10 0 59831 55800.00000 0 3402233.424 25002054.265 -3520780.711 10 0 59831 56700.00000 0 3393761.781 24352943.250 -6657567.059 10 0 59831 57600.00000 0 3224674.172 23344643.175 -9664491.884 10 0 59831 58500.00000 0 2852884.856 22016265.314 -12482853.620 10 0 59831 59400.00000 0 2245194.404 20416797.669 -15057622.064 10 0 59831 60300.00000 0 1378960.623 18603076.968 -17338530.209 10 0 59831 61200.00000 0 243318.968 16637446.539 -19281070.384 10 0 59831 62100.00000 0 -1160101.204 14585199.981 -20847373.942 10 0 59831 63000.00000 0 -2816996.316 12511919.539 -22006956.364 10 0 59831 63900.00000 0 -4700752.684 10480822.490 -22737312.775 10 0 59831 64800.00000 0 -6773340.171 8550227.971 -23024352.324 10 0 59831 65700.00000 0 -8986697.712 6771251.023 -22862663.478 10 0 59831 66600.00000 0 -11284552.072 5185820.486 -22255605.891 10 0 59831 67500.00000 0 -13604592.960 3825102.929 -21215228.204 10 0 59831 68400.00000 0 -15880912.740 2708397.092 -19762014.699 10 0 59831 69300.00000 0 -18046608.012 1842543.075 -17924467.079 10 0 59831 70200.00000 0 -20036433.977 1221868.377 -15738530.895 10 0 59831 71100.00000 0 -21789400.683 828670.096 -13246879.016 10 0 59831 72000.00000 0 -23251203.009 634210.143 -10498067.266 10 0 59831 72900.00000 0 -24376383.732 600178.729 -7545579.590 10 0 59831 73800.00000 0 -25130140.555 680562.088 -4446782.019 10 0 59831 74700.00000 0 -25489703.097 823833.801 -1261806.359 10 0 59831 75600.00000 0 -25445224.125 975375.974 1947614.554 10 0 59831 76500.00000 0 -25000149.616 1080027.436 5119337.495 10 0 59831 77400.00000 0 -24171053.932 1084651.369 8192002.627 10 0 59831 78300.00000 0 -22986948.506 940614.474 11106208.037 10 0 59831 79200.00000 0 -21488093.961 606073.912 13805643.324 10 0 59831 80100.00000 0 -19724365.805 47976.602 16238161.544 10 0 59831 81000.00000 0 -17753241.810 -756312.397 18356770.303 10 0 59831 81900.00000 0 -15637494.251 -1817820.301 20120524.456 10 0 59831 82800.00000 0 -13442681.952 -3135265.616 21495304.667 10 0 59831 83700.00000 0 -11234544.825 -4694875.629 22454468.202 10 0 59831 84600.00000 0 -9076407.350 -6470731.231 22979360.490 10 0 59831 85500.00000 0 -7026697.021 -8425626.433 23059678.172 99